Regional Weather Roundup
Issued by NWS

Home | Current Version | Previous Version | Graphics & Text | Print | Product List | Glossary On
Versions: 1 2 3 4 5 6 7 8 9 10 11 12 13 14 15 16 17 18 19 20 21 22 23 24 25 26 27 28 29 30 31 32 33 34 35 36 37 38 39 40 41 42 43 44 45 46 47 48 49 50
000
ASUS44 KMEG 240910
RWRTN
TENNESSEE HOURLY STATE WEATHER ROUNDUP
NATIONAL WEATHER SERVICE MEMPHIS TN
400 AM CDT FRI MAR 24 2017

TNZ002-004-019-021-049-052-054-088>092-241000-
WEST TENNESSEE

CITY           SKY/WX    TMP DP  RH WIND       PRES   REMARKS
MEMPHIS INTL   CLEAR     69  57  65 S18G25    30.08F
NWS MEMPHIS      N/A     67 N/A N/A MISG        N/A
JACKSON        CLEAR     65  56  72 S9G23     30.13S
DYERSBURG      CLEAR     66  56  70 S10       30.08F
SOMERVILLE     MOCLDY    66  57  72 S9G17     30.10S
BOLIVAR        CLOUDY    64  57  77 SE13G21   30.13S
PARIS          CLEAR     61  52  72 S13       30.13R
HUNTINGDON     CLOUDY    64  55  72 S10G20    30.13R
SAVANNAH       CLOUDY    63  54  72 S12       30.16F
$$

TNZ008-025-027-028-033-062-065-066-241000-
NORTH MIDDLE TENNESSEE

CITY           SKY/WX    TMP DP  RH WIND       PRES   REMARKS
NASHVILLE      CLEAR     59  46  62 S14       30.22F
PORTLAND       CLOUDY    57  43  58 S15G22    30.20S
CLARKSVILLE    CLEAR     61  49  64 S14G22    30.15F
SMYRNA         CLEAR     58  45  62 S12       30.24F
COOKEVILLE     CLOUDY    55  39  54 S12G17    30.25F
GALLATIN       CLOUDY    55  43  62 S3        30.25F
CROSSVILLE     CLEAR     53  38  56 S9G23     30.30F
$$

TNZ061-075-076-078-094-096-097-241000-
SOUTH MIDDLE TENNESSEE

CITY           SKY/WX    TMP DP  RH WIND       PRES   REMARKS
FAYETTEVILLE   CLOUDY    59  46  63 S16G23    30.26F
TULLAHOMA      CLOUDY    57  43  58 SE9       30.27F
WINCHESTER     CLOUDY    57  45  62 S15       30.27F
MCMINNVILLE    CLEAR     55  43  62 S8        30.27F
COLUMBIA       MOCLDY    61  54  77 S12       30.21S
SHELBYVILLE    MOCLDY    61  46  59 S13       30.26S
$$

TNZ017-018-042-046-047-241000-
NORTHEAST TENNESSEE

CITY           SKY/WX    TMP DP  RH WIND       PRES   REMARKS
TRI CITIES     CLOUDY    51  29  42 S7        30.37R
ELIZABETHTON   CLOUDY    50  30  46 E6        30.38S
$$

TNZ012-013-036-069-073-074-241000-
CENTRAL EAST TENNESSEE

CITY           SKY/WX    TMP DP  RH WIND       PRES   REMARKS
KNOXVILLE      CLOUDY    56  37  49 SW3       30.32F
OAK RIDGE      CLOUDY    57  34  41 CALM      30.34F
DOWNTOWN KNOXV CLOUDY    52  46  82 CALM      30.34R
GATLINBURG     CLEAR     41  37  87 CALM      30.33S
MORRISTOWN     CLOUDY    50  34  53 CALM      30.34R
JACKSBORO      MOCLDY    57  37  47 S8G17     30.33S
$$

TNZ083-085-099-241000-
SOUTHEAST TENNESSEE

CITY           SKY/WX    TMP DP  RH WIND       PRES   REMARKS
CHATTANOOGA    MOCLDY    59  36  42 S13       30.34F
$$

SKY/WX REPORTED AS FAIR MEANS FEW OR NO CLOUDS BELOW
12 THOUSAND FEET.





USA.gov is the U.S. government's official web portal to all federal, state and local government web resources and services.